Location: East Horndon
(51.5667°N, 0.3500°E)
Time: 00:19:18
(UTC+00:00)

USA 267 - Pass Details

Date: 08 November 2025
Orbit: 1100 x 1108 km, 123.0° (Epoch: 21 November)

Event Time Altitude Azimuth Distance (km) Brightness Sun altitude
Rises 03:11:40 0° 58° (ENE) 3,924 7.1 -36.0°
Reaches altitude 10° 03:14:14 10° 63° (ENE) 2,963 6.3 -35.6°
Enters shadow 03:20:18 53° 130° (SE) 1,328 3.7 -34.8°
